TIME,DELAY(SENSOR),PRES,OXYGEN,RAWTEMP,T(OPTODE),TCPHASE,FLUOR,BETA(BETA700),BETA(BETA412),BETA(BETA440),CDOM,C(CSC),ED(ED412.40),ED(ED444.00),ED(ED489.70),ED(ED554.30),LU(LU411.80),LU(LU443.40),LU(LU489.60),LU(LU554.10),COMP,TILTX,TILTY,CHECK
1339818190,5808,878.9400024414062000,43.3426399230957000,662.3250732421875000,4.5513968467712400,54.5300483703613300,53,103,91,80,82,15363,2147755620,2147423725,2148009353,2147874733,2147642486,2147066505,2148259565,2147201965,410,4,14,56279
1339821786,5806,948.1900024414062000,47.8064308166503900,672.7619018554688000,4.2069191932678220,54.0079498291015600,53,102,89,79,82,15363,2147760128,2147421586,2148008713,2147876406,2147645613,2147064155,2148264612,2147202496,980,4,13,48891
1339825386,5808,976.4299926757812000,48.7536087036132800,674.0662841796875000,4.1637759208679200,53.8958282470703100,53,97,92,78,82,15363,2147763062,2147420013,2148010614,2147877769,2147647460,2147065984,2148260845,2147203876,3196,4,14,27303
1339828986,5807,983.5100097656250000,48.0725517272949200,673.5391235351562000,4.1812171936035160,53.9837608337402340,52,101,89,79,82,15362,2147760466,2147420507,2148008749,2147874240,2147642633,2147059309,2148266989,2147201792,3262,4,13,60728
1339832586,5807,991.9799804687500000,48.0148315429687500,673.5518188476562000,4.1807980537414550,53.9927787780761700,53,101,89,77,82,15363,2147758244,2147419940,2148010569,2147874587,2147645449,2147061220,2148265682,2147204909,3226,4,13,20536
1339836186,5809,989.4000244140625000,47.9727287292480500,673.6398925781250000,4.1778831481933590,53.9976081848144500,52,99,89,80,83,15363,2147758701,2147423899,2148010660,2147876096,2147643931,2147061860,2148264841,2147200009,3402,4,13,44798
1339839786,5806,988.4099731445312000,48.1573486328125000,674.2863159179688000,4.1564998626708980,53.9830284118652340,52,96,91,79,82,15361,2147761901,2147421952,2148007350,2147877860,2147644882,2147059017,2148261760,2147204278,323,4,13,22915
1339843386,5811,990.5800170898438000,47.8394584655761700,673.9180297851562000,4.1686820983886720,54.0186805725097660,53,99,88,79,82,15357,2147757741,2147421312,2148009380,2147873499,2147643044,2147056649,2148267840,2147203766,268,4,13,52784
1339846986,5809,997.9899902343750000,47.6407890319824200,673.9071044921875000,4.1690440177917480,54.0462684631347660,53,101,87,79,83,15357,2147759405,2147419026,2148011629,2147872182,2147642944,2147064576,2148263323,2147198774,3481,4,13,24743
1339850586,5812,996.5900268554688000,47.7826194763183600,674.2454223632812000,4.1578521728515625,54.0300102233886700,53,100,87,78,81,15357,2147760109,2147419666,2148010468,2147874377,2147641069,2147062601,2148263122,2147199552,26,4,13,23791
1339854186,5805,998.1799926757812000,47.8283615112304700,674.0718994140625000,4.1635928153991700,54.0215301513671900,53,99,87,80,83,15357,2147761078,2147420059,2148008283,2147876333,2147646665,2147061101,2148265014,2147202596,187,4,13,31440
1339857786,5810,996.5300292968750000,47.5286407470703100,673.9744873046875000,4.1668128967285160,54.0613708496093750,53,98,91,78,83,15354,2147761133,2147418203,2148007442,2147875035,2147644187,2147063131,2148264045,2147200813,90,4,13,57253
1339861386,5809,996.4099731445312000,47.6639785766601560,674.2039794921875000,4.1592240333557130,54.0451011657714840,53,102,92,81,83,15353,2147761426,2147422820,2148010258,2147874258,2147642669,2147060900,2148266724,2147204946,216,4,13,883
1339864986,5809,1000.4899902343750000,47.2689018249511700,674.3845825195312000,4.1532478332519530,54.1052093505859400,52,101,90,79,82,15360,2147761307,2147419392,2148008429,2147875081,2147644781,2147064649,2148263661,2147201910,98,5,13,24869
1339868586,5809,1005.3499755859375000,47.4751014709472660,673.5258789062500000,4.1816539764404300,54.0637207031250000,53,99,90,80,81,15356,2147758939,2147420809,2148009581,2147877540,2147643017,2147061814,2148264758,2147197193,3394,4,13,50776
1339872186,5807,1005.8900146484375000,47.0462684631347660,673.6223754882812000,4.1784629821777340,54.1277618408203100,52,99,88,80,82,15354,2147759936,2147421558,2148007643,2147875675,2147640850,2147068827,2148263597,2147202624,159,4,13,27983
1339875786,5810,1003.7600097656250000,47.3705406188964840,674.0272827148438000,4.1650681495666500,54.0850410461425800,52,99,90,80,81,15355,2147759890,2147421156,2148006875,2147873362,2147638482,2147064630,2148269440,2147201344,3363,4,13,61776
1339879386,5809,1005.0300292968750000,47.4683914184570300,674.2064819335938000,4.1591401100158690,54.0794296264648440,53,99,90,80,82,15353,2147761718,2147420891,2148007497,2147879533,2147642029,2147054226,2148264996,2147201828,3096,4,14,27411
1339882986,5805,1008.2800292968750000,47.1374588012695300,673.3107910156250000,4.1887679100036620,54.1117897033691400,52,99,88,78,82,15346,2147762313,2147418066,2148008822,2147875318,2147640713,2147058925,2148261613,2147200621,337,4,13,14437
1339886586,5808,1007.2000122070312000,46.3851509094238300,672.8687744140625000,4.2033820152282715,54.2131385803222660,52,101,91,79,83,15344,2147763072,2147419693,2148008402,2147877897,2147643465,2147064585,2148267520,2147198491,377,4,14,11516
1339890186,5808,1004.3499755859375000,46.5224609375000000,672.8798217773438000,4.2030181884765625,54.1963005065918000,52,99,87,79,82,15345,2147758473,2147422765,2148012306,2147874404,2147642496,2147063634,2148265993,2147199899,182,4,13,13619
1339893786,5803,1006.0999755859375000,46.5302810668945300,673.7045288085938000,4.1757469177246090,54.1999397277832000,53,98,90,80,83,15340,2147762505,2147419776,2148009563,2147876105,2147645019,2147059108,2148269833,2147196443,436,4,13,40777
1339897386,5808,1002.3699951171875000,47.0374794006347660,673.6096801757812000,4.1788830757141110,54.1259498596191400,53,99,86,79,82,15347,2147761298,2147422134,2148005641,2147876717,2147639954,2147062500,2148263972,2147198582,3509,4,13,4903
1339900986,5810,1003.7000122070312000,46.8517990112304700,673.7490234375000000,4.1742758750915530,54.1551895141601560,53,98,91,80,82,15346,2147760832,2147423707,2148007469,2147872438,2147646253,2147057627,2148263177,2147200548,709,4,13,24903
1339904586,5810,996.3200073242188000,47.3616981506347660,674.5916748046875000,4.1463990211486820,54.0983085632324200,53,99,89,82,82,15346,2147757668,2147416987,2148008704,2147875638,2147644370,2147062948,2148260187,2147200054,3586,4,13,3307
1339908186,5808,994.0399780273438000,47.9830398559570300,676.5584716796875000,4.0813031196594240,54.0330200195312500,52,100,88,80,83,15343,2147760512,2147419785,2148006820,2147877668,2147640813,2147064100,2148264539,2147201298,127,4,13,9848
1339911786,5810,999.4000244140625000,48.5756797790527340,677.4193725585938000,4.0527949333190920,53.9604301452636700,53,100,89,79,83,15347,2147763181,2147418761,2148008786,2147876608,2147644370,2147056585,2148259090,2147201481,3497,4,13,11574
1339915386,5809,1000.8300170898438000,48.8868789672851560,677.7025146484375000,4.0434188842773440,53.9186210632324200,52,99,87,78,82,15340,2147760667,2147418880,2148009115,2147872292,2147643766,2147059099,2148268278,2147201499,3008,4,13,837
1339918986,5809,1008.5999755859375000,48.0316581726074200,675.5510864257812000,4.1146488189697270,54.0107994079589840,52,99,86,78,82,15341,2147762358,2147420498,2148006445,2147873901,2147645421,2147060653,2148261778,2147200978,282,4,14,22027
1339922586,5808,1008.8800048828125000,47.4693298339843750,676.0510864257812000,4.0980968475341800,54.0946197509765600,53,100,89,78,82,15338,2147759369,2147425581,2148011309,2147877558,2147642870,2147063570,2148266605,2147203026,358,4,13,51888
1339926186,5812,1005.1500244140625000,47.1674804687500000,674.9678955078125000,4.1339488029479980,54.1295509338378900,53,97,88,78,83,15343,2147759936,2147421202,2148011821,2147874038,2147643739,2147061586,2148262957,2147203940,3574,4,13,52303
1339929786,5807,1004.8599853515625000,47.5746612548828100,675.1859130859375000,4.1267337799072270,54.0741691589355500,52,98,90,79,83,15342,2147761179,2147419986,2148007862,2147874560,2147644086,2147060379,2148263296,2147201179,266,4,13,18226
1339933386,5811,1004.1500244140625000,47.6636886596679700,674.5126953125000000,4.1490120887756350,54.0539207458496100,53,100,91,79,82,15340,2147759680,2147422537,2148011465,2147874752,2147641481,2147060946,2148265572,2147202971,54,4,13,20028
1339936986,5807,1007.1699829101562000,47.9109306335449200,675.0120849609375000,4.1324839591979980,54.0238304138183600,53,97,127,81,84,15338,2147764489,2147421924,2148007570,2147873462,2147643757,2147063405,2148264118,2147199213,3339,4,13,39544
1339940586,5810,1013.4000244140625000,47.5776901245117200,674.0563964843750000,4.1641058921813965,54.0599594116210940,52,102,90,80,83,15342,2147761782,2147420571,2148008246,2147872768,2147643492,2147063826,2148260681,2147201408,3568,4,14,34875
1339944186,5811,1005.7399902343750000,47.1288299560546900,674.4417114257812000,4.1513600349426270,54.1228790283203100,52,100,89,79,82,15341,2147765202,2147420681,2148009051,2147875620,2147644251,2147063597,2148264420,2147204525,39,4,13,58992
1339947786,5809,1005.1099853515625000,47.4076309204101560,675.5191040039062000,4.1157069206237790,54.1009407043457000,52,98,88,79,83,15337,2147761947,2147422674,2148007881,2147875840,2147646208,2147064603,2148263469,2147202697,259,4,13,55963
1339951386,5809,1000.0200195312500000,47.6713218688964840,675.9848022460938000,4.1002922058105470,54.0695304870605500,53,100,87,80,82,15335,2147763840,2147420928,2148010541,2147874569,2147646198,2147061019,2148268836,2147201216,3384,4,13,30187
1339954986,5810,1010.4000244140625000,48.1520118713378900,676.5123901367188000,4.0828270912170410,54.0113296508789060,52,98,89,79,82,15334,2147761280,2147421549,2148013622,2147877494,2147645568,2147067273,2148266651,2147199067,3292,4,13,54254
1339958586,5804,1013.4400024414062000,48.1994094848632800,675.5172729492188000,4.1157670021057130,53.9883193969726560,52,97,88,80,82,15333,2147761947,2147421723,2148007570,2147874496,2147643108,2147061412,2148266176,2147204187,3486,4,13,30448
1339962186,5810,1003.6500244140625000,47.4870796203613300,675.4436035156250000,4.1182060241699220,54.0905418395996100,53,100,89,79,82,15335,2147759972,2147421942,2148010468,2147876013,2147646281,2147063049,2148263149,2147201252,398,4,13,15886
1339962656,5806,1004.4199829101562000,47.5720787048339840,675.6602783203125000,4.1110320091247560,54.0812301635742200,52,100,89,80,83,15343,2147761152,2147421696,2148010258,2147871341,2147646253,2147061997,2148262098,2147196653,3493,4,13,40581
